User: anonymous
Location: Goheenville
(40.9070°N, 79.3720°W)
Time: 00:23:57
(UTC-04:00)
Language:

Meteor 2-10 Rocket - Orbit

View from above orbital plane
View from above orbital plane
View from above satellite
View from above satellite

Ground track
Ground track

The orbit data is extracted from the following two-line orbital elements,

1 14453U 83109B   14274.81828931  .00000122  00000-0  44080-4 0  2466
2 14453 081.1701 021.5171 0105505 046.1683 066.0577 14.24518148606661
Epoch (UTC): 01 October 2014 19:38:20
Eccentricity: 0.0105505
inclination: 81.1701°
perigee height: 734 km
apogee height: 886 km
right ascension of ascending node: 21.5171°
argument of perigee: 46.1683°
revolutions per day: 14.24518148
mean anomaly at epoch: 66.0577°
orbit number at epoch: 60666

The dashed part of the orbit path shows where the satellite is in the earth's shadow,  

DLR